Showing default

ICEYE-X14, 51070

Orbit data source: Space-Track

ICEYE-X14, 51070 is a payload satellite owned by ICEYE US (US) in SSO that was launched on Thu, 13 Jan 2022 UTC via an FALCON 9 launch vehicle from the Air Force Eastern Test Range (AFETR). Payload-class satellites include a variety of spacecraft equipped with specific instruments for various scientific and technological missions. These include communications satellites like Starlink; space stations such as the ISS; scientific satellites like the Hubble; Earth observation satellites from companies like Planet Labs, Umbra, and HawkEye 360; GPS; miniature CubeSats for education and research; and military/defense satellites.

Loading next visibility...
Identifier
51070, 2022-002CQ
Orbit
SSO
Country
Flag of USUS
Related business
Manufacturer
ICEYE US
Mission
Operational Commercial Radar Imaging
Bus & Motor
ICEYE, Unknown motor
Mass
80 kg wet, 80 kg dry
Launch date (UTC)
2022-01-13 (4 years ago)
Launch vehicle
FALCON 9
Launch site
Air Force Eastern Test Range (AFETR)
Object type
Payload
Rocket body
Debris
Shape & HBR
Box + 1 Pan, 1.6 m
Radar Cross Section
1.837 m², Medium (>0.1 m² and < 1m²)

Expand to show TLE details & history
Last TLE update: 5 hours ago

TLE from 5 hours ago
0 ICEYE-X14
1 51070U 22002CQ  25291.19057878  .00159220  00000-0  19226-2 0  9994
2 51070  97.3290   3.5160 0003850 204.7266 155.3807 15.60199360209272
Epoch: 2025-10-18T04:34Z
TLE epoch observation values (Epoch: 2025-10-18T04:34:26.006Z)
Latitude
-0.00004°
Longitude
-92.0175°
Altitude
392.596 km
Speed
7.673 km/s
True Right ascension
00h 14m 03s
True Declination
0° 00' 00"
Sunlit
Object was in full shadow at epoch
Visualization orbit readout
Latitude
Unknown
Longitude
Unknown
Altitude
Unknown
Speed
Unknown
Apparent Right ascension
Unknown
Apparent Declination
Unknown
Sunlit
N/A
Visualization observer readout
Local Sidereal Time
04:23:44
Azimuth
Unknown
Elevation
Unknown
Doppler factor
Unknown
Orbital elements
Apogee altitude
386.593 km
Perigee altitude
381.386 km
Semi-major axis
6,762.127 km
Eccentricity
0.00039
Inclination
97.329°
RAAN
3.516°
Arg. of periapsis
204.7266°
True anomaly
155.39907°
Mean anomaly
155.3807°
Eccentric anomaly
155.38989°
Mean motion
3.90318 °/min
Orbital period
92.23 mins
BSTAR
0.0019226
Loading maneuver chart data...
Computing Atmospheric mass density...

Documentation

Showing up to 5 results
|